SCP
0 0 0 -0 -0 -0 0 -0 -0 0 0 0 0 0 0 0 0 0 0 0 0 0 -0 -0 -0 -0 -0 -0 -0 -0 0 0 -0 -0 -0 0 0 0 0 0 0 0 0 0
0 0 0 -0 -0 0 0 -0 -0 0 0 0 0 0 0 0 0 0 0 0 0 0 0 -0 -0 0 -0 -0 -0 -0 -0 -0 -0 0 -0 0 0 0 0 0 0 0 0 0
0 0 0 0 -0 0 0 -0 -0 0 0 0 0 0 0 0 0 0 0 0 0 0 0 -0 -0 -0 -0 -0 -0 -0 0 -0 -0 -0 0 -0 0 0 0 0 0 0 -0 0
0 0 0 0 -0 -0 -0 -0 0 0 0 0 0 0 0 0 0 0 0 0 0 0 0 -0 -0 -0 -0 -0 -0 -0 -0 0 -0 0 0 0 0 0 0 0 0 0 0 0
0 0 0 0 0 -0 0 -0 0 0 0 0 0 0 0 0 0 0 0 0 0 0 0 -0 -0 -0 -0 -0 -0 -0 -0 0 -0 0 0 0 0 0 0 0 0 0 0 0
0 0 0 0 0 -0 0 0 0 0 0 0 0 0 0 0 0 0 0 0 0 0 0 -0 -0 -0 -0 -0 -0 -0 -0 0 0 0 0 0 0 0 0 0 0 0 0 0
0 0 0 0 0 0 0 0 0 0 0 0 0 0 0 0 0 0 0 0 0 0 -0 -0 -0 -0 -0 -0 -0 -0 -0 -0 -0 0 0 -0 0 0 0 0 0 0 0 0
0 0 0 0 0 0 0 0 0 0 0 0 0 0 0 0 0 0 0 0 0 0 -0 0 0 0 0 -0 0 -0 -0 -0 -0 -0 0 0 0 0 0 0 0 0 0 0
0 0 0 0 0 0 0 0 0 0 0 0 0 0 0 0 0 0 0 0 0 0 0 -0 -0 -0 0 0 0 0 -0 -0 -0 -0 0 0 0 0 0 0 0 0 0 0
0 0 0 0 0 0 0 0 0 0 0 0 0 0 0 0 0 0 0 0 0 0 0 -0 -0 -0 -0 0 -0 0 -0 -0 -0 0 0 0 0 0 0 0 0 0 0 0
0 0 0 0 0 0 0 0 0 0 0 0 0 0 0 0 0 0 0 0 0 0 -0 -0 0 -0 0 0 0 -0 0 0 0 -0 0 0 -0 0 0 0 0 0 0 0
0 0 0 0 0 0 0 0 0 0 0 0 0 -0 -0 0 0 0 0 0 0 0 0 0 0 0 0 0 0 0 0 0 0 0 0 0 0 0 0 0 0 0 0 0
0 0 0 0 0 0 0 0 0 0 0 0 0 0 0 0 0 0 0 0 0 0 0 -0 -0 0 0 0 0 -0 -0 -0 -0 -0 0 -0 0 0 0 0 0 0 0 0
0 0 0 0 0 0 0 0 0 0 0 0 0 0 0 0 0 0 0 0 0 0 0 0 -0 0 0 0 0 0 -0 0 0 -0 0 0 0 0 0 0 0 0 0 0
0 0 0 0 0 0 0 0 0 0 0 0 0 0 0 0 0 0 0 0 0 0 0 0 -0 0 0 0 0 -0 -0 0 0 -0 -0 0 0 0 0 0 0 0 0 0
0 0 0 0 0 0 0 0 0 0 0 0 0 0 0 0 0 0 0 0 0 0 0 0 0 0 0 0 0 0 0 0 0 0 0 0 0 0 0 0 0 0 0 0
0 0 0 0 0 0 0 0 0 0 0 0 0 0 0 0 0 0 0 0 0 0 0 0 0 0 0 0 0 -0 0 0 0 0 0 0 -0 0 0 0 0 0 0 0
0 0 0 0 0 0 0 0 0 0 0 0 0 0 0 0 0 0 0 0 0 0 0 0 0 0 0 0 0 0 0 0 0 0 0 0 0 0 0 0 0 0 0 0
0 0 0 0 0 0 0 0 0 0 0 0 0 0 0 0 0 0 0 0 0 0 0 0 0 0 0 0 0 0 0 0 0 0 0 0 0 0 0 0 0 0 0 0
0 0 0 0 0 0 0 0 0 0 0 0 0 0 0 0 0 0 0 0 0 0 0 0 0 0 0 0 0 0 0 0 0 0 0 0 0 0 0 0 0 0 0 0
0 0 0 0 0 0 0 0 0 0 0 0 0 0 0 0 0 0 0 0 0 0 0 0 0 0 0 0 0 0 0 0 0 0 0 0 0 0 0 0 0 0 0 0
0 0 0 0 0 0 0 0 0 0 0 0 0 0 0 0 0 0 0 0 0 0 0 0 0 0 0 0 0 -0 0 0 0 0 0 0 0 0 0 0 0 0 0 0
0 0 0 0 0 0 0 0 0 0 0 0 0 0 0 0 0 0 0 0 0 0 0 0 0 0 0 -0 -0 -0 -0 0 0 0 0 0 0 0 0 0 0 0 0 0
0 0 0 0 0 0 0 0 0 0 0 0 0 0 0 0 0 0 0 0 0 0 0 0 0 0 -0 -0 -0 -0 0 0 0 0 0 0 0 0 0 0 0 0 0 0
0 0 0 0 0 0 0 0 0 0 0 0 0 0 0 0 0 0 0 0 0 0 0 0 0 -0 -0 -0 0 0 -0 0 0 0 0 0 0 0 0 0 0 0 0 0
0 0 0 0 0 0 0 0 0 0 0 0 0 0 0 0 0 0 0 0 0 0 0 0 0 -0 -0 0 0 0 0 0 0 0 0 0 0 0 0 0 0 0 0 0
0 0 0 0 0 0 0 0 0 0 0 0 0 0 0 0 0 0 0 0 0 0 -0 -0 0 -0 0 0 0 0 0 0 0 0 0 0 0 0 0 0 0 0 0 0
Wind_Speed_500mb
72 73 77 79 82 81 62 15 6 35 41 17 11 15 16 25 19 28 16 20 25 24 38 32 24 13 2 27 34 22 11 8 10 22 17 19 19 17 16 4 5 12 4 15
69 71 73 74 74 75 56 17 8 22 29 11 15 19 11 13 23 26 15 16 20 23 33 23 22 24 16 38 26 24 15 7 8 13 13 16 20 14 13 7 13 13 4 16
66 68 69 71 68 64 39 13 9 9 21 22 17 18 16 23 24 23 30 23 20 32 36 19 21 20 9 39 35 37 9 11 13 10 12 25 21 14 16 16 5 2 23 24
63 66 66 66 64 58 29 21 9 7 13 16 23 17 14 24 24 12 26 10 27 35 19 39 8 35 36 24 26 29 16 11 22 14 1 8 16 21 18 18 7 9 14 8
60 63 63 62 60 56 28 15 14 11 17 17 19 2 19 25 30 15 18 22 35 35 31 28 42 39 29 14 16 21 22 6 11 7 4 15 16 16 17 16 5 9 5 12
55 58 59 59 55 52 17 18 13 7 4 16 13 14 20 29 34 15 22 29 35 33 26 48 63 61 51 36 35 22 15 13 10 4 1 17 18 20 16 10 12 6 5 20
51 54 55 55 51 47 30 21 10 10 11 12 12 27 29 30 31 29 40 30 30 30 63 64 42 32 26 29 31 28 18 22 11 9 8 20 18 17 16 14 5 5 2 8
47 50 50 50 45 43 30 25 10 10 13 21 14 27 30 32 29 19 21 22 36 39 39 13 10 6 6 3 6 14 21 11 10 8 10 11 15 25 12 12 13 24 11 15
44 45 44 44 42 37 26 25 20 6 14 5 15 23 20 19 21 14 7 27 24 34 7 9 13 9 10 7 6 7 7 15 9 11 7 3 16 28 19 9 10 28 21 16
44 44 42 37 39 35 26 13 26 7 10 11 9 9 13 13 17 13 14 29 19 31 13 11 9 7 11 10 13 3 5 6 9 7 9 10 26 27 10 15 9 37 27 8
46 44 40 35 33 30 24 15 20 9 13 27 12 13 19 19 12 12 30 12 13 13 15 10 7 7 7 6 5 14 8 9 5 8 5 6 42 17 14 22 36 29 28 17
48 45 41 36 29 28 22 8 21 21 17 19 29 29 28 31 27 23 12 9 8 9 7 7 8 5 5 13 6 6 4 4 8 9 6 14 22 25 30 39 36 23 12 38
50 47 41 37 30 26 21 11 16 15 16 23 16 9 12 13 15 20 10 2 7 5 10 8 7 7 5 9 8 18 13 5 6 16 13 32 17 39 42 36 38 24 31 38
50 47 40 35 30 25 20 15 18 10 10 10 5 14 12 12 16 19 27 20 16 17 17 11 7 7 1 8 13 18 13 19 12 8 10 22 20 44 59 29 24 24 34 40
53 46 39 34 30 24 22 22 20 16 7 13 21 29 14 15 15 18 22 25 22 12 8 8 6 8 9 14 12 11 4 2 6 5 14 12 27 39 44 23 10 21 34 37
59 43 38 33 27 20 10 9 14 19 17 9 8 11 11 12 13 19 21 20 18 13 8 10 9 16 9 7 8 11 14 10 14 14 24 24 20 34 34 10 13 23 29 36
51 36 29 29 28 21 14 9 11 17 11 5 12 8 7 12 9 11 8 13 10 12 10 10 12 10 8 7 15 9 10 10 11 18 22 14 8 23 29 6 20 28 31 36
34 24 24 26 19 20 20 24 24 16 7 6 7 7 9 8 10 8 12 9 10 13 10 9 7 6 8 9 13 15 17 21 26 18 23 30 27 19 7 15 35 40 39 42
27 25 24 19 17 13 11 17 15 23 11 7 9 7 3 6 7 8 10 9 8 11 8 9 6 6 9 8 21 26 25 20 28 33 35 28 19 8 15 19 30 36 43 43
32 32 13 13 12 21 21 12 9 15 15 17 12 16 8 5 4 4 5 9 5 6 3 2 6 9 20 9 16 20 26 31 34 35 33 20 13 12 21 24 26 33 42 48
43 19 13 12 26 17 10 11 14 17 10 16 19 29 11 7 7 4 7 4 6 5 5 3 5 6 5 9 17 23 30 27 26 27 31 31 23 19 23 27 30 37 47 55
31 17 18 19 12 11 10 9 10 13 10 19 23 20 20 7 6 8 9 6 6 9 15 5 6 6 9 12 16 21 23 22 22 20 12 6 17 23 28 31 36 42 54 62
30 12 11 11 13 12 14 18 11 10 14 20 25 16 14 11 12 8 7 9 9 7 7 6 2 12 16 12 17 16 17 16 19 17 10 1 13 21 25 31 33 38 47 58
10 13 11 13 13 13 11 11 6 6 10 27 26 16 13 12 11 9 9 9 6 7 7 5 5 25 15 8 9 9 13 15 15 12 8 8 12 21 25 29 34 45 58 62
11 12 10 16 17 6 7 13 4 13 13 20 13 6 7 8 7 7 7 7 9 5 1 2 4 14 10 7 3 5 9 9 8 6 5 11 17 25 33 35 43 55 65 60
10 13 10 8 7 15 17 17 21 14 17 10 7 5 7 11 7 10 14 7 7 5 2 18 17 15 12 9 6 0 3 5 4 6 11 15 24 34 43 48 55 55 54 48
10 9 16 17 12 13 11 24 26 21 25 13 7 9 11 2 6 7 4 7 6 15 20 22 32 13 14 13 12 7 8 13 15 17 21 26 35 43 51 56 51 53 49 46
Wind_Direction_500mb
357 358 358 360 0 3 11 17 345 340 6 25 8 16 337 323 327 334 311 309 320 350 326 326 325 354 19 334 323 303 317 302 207 196 169 263 226 262 231 325 144 7 179 92
354 356 357 1 3 3 4 352 335 348 22 30 15 355 334 324 322 332 322 309 334 332 323 327 321 348 16 330 341 350 335 276 206 171 182 211 254 221 260 12 301 24 245 119
349 353 357 360 4 6 9 1 351 11 43 43 347 355 5 341 329 314 335 294 308 338 328 312 294 341 6 320 307 327 271 285 322 346 57 163 212 234 228 231 265 106 62 123
345 350 356 360 3 10 31 16 39 0 330 0 342 336 325 342 352 328 322 308 345 337 322 318 51 326 329 6 288 335 2 330 328 324 71 229 204 190 193 221 304 273 70 81
343 347 352 360 3 7 29 15 353 323 292 316 323 22 351 329 341 320 316 315 326 320 306 297 301 314 320 328 296 347 342 293 290 272 262 219 229 204 197 222 188 254 323 101
340 343 349 356 4 13 31 7 338 332 300 328 313 7 330 320 324 311 314 314 310 313 324 312 294 284 278 259 282 301 301 328 5 270 181 176 214 215 196 199 234 297 233 76
336 339 343 350 1 8 20 11 359 310 328 322 329 317 317 319 320 302 306 312 309 305 313 308 281 249 259 255 258 247 279 319 315 298 292 184 64 15 270 232 250 131 25 94
332 333 337 343 351 359 12 10 13 323 295 321 300 325 320 319 319 321 318 336 319 319 316 319 341 69 165 146 250 236 230 285 303 310 305 123 84 26 357 343 94 13 341 102
326 327 329 333 337 351 0 360 8 319 294 77 313 314 313 319 337 333 5 340 337 341 312 334 4 11 330 337 347 82 173 246 307 327 295 24 17 348 341 215 180 21 349 146
318 320 320 323 325 335 351 322 357 359 281 286 305 314 320 313 321 300 317 347 345 2 352 29 3 358 358 342 320 302 177 205 264 293 261 119 353 346 313 225 29 339 337 251
308 311 312 312 312 314 332 302 329 330 286 289 258 267 274 293 276 311 339 285 29 347 13 356 358 341 359 285 280 329 11 324 266 283 251 82 354 13 17 329 320 318 306 184
301 305 303 303 299 296 305 301 302 313 279 264 281 269 253 247 255 292 309 335 343 9 339 2 304 354 310 284 346 35 24 108 301 326 29 346 61 20 346 337 326 322 94 124
294 298 296 296 292 289 295 281 274 307 292 305 262 250 235 262 256 226 269 128 350 54 358 328 284 278 355 338 346 342 326 225 258 315 4 334 271 1 351 342 334 315 154 143
283 288 287 286 281 274 273 270 269 275 282 282 232 257 255 260 239 241 236 258 287 295 294 289 273 289 256 288 287 294 272 312 322 302 10 335 351 352 351 346 5 103 137 147
275 276 276 275 270 269 276 275 256 226 263 306 298 291 263 213 219 234 241 245 254 275 271 235 259 300 282 260 287 263 244 275 324 339 357 323 320 335 348 350 51 123 133 138
263 260 260 260 256 260 270 263 239 213 214 290 290 301 245 210 238 249 240 233 227 238 240 269 252 249 281 292 283 294 307 294 285 295 318 320 310 332 336 333 116 128 141 142
244 240 239 247 250 237 200 253 193 199 212 241 283 256 211 223 240 209 191 194 217 228 251 247 261 272 217 268 269 288 323 323 306 306 309 305 323 307 311 205 150 136 137 138
213 215 227 252 247 251 255 243 226 207 224 225 267 273 239 191 227 218 183 189 213 223 259 241 231 242 223 259 248 293 314 311 297 296 299 299 300 301 234 157 153 138 141 142
188 187 213 243 234 219 214 185 197 209 202 255 226 252 118 176 225 253 208 222 228 179 223 238 214 195 231 311 318 309 317 317 305 302 298 297 289 266 198 172 161 148 150 149
171 182 191 223 207 162 156 166 181 208 222 222 246 239 240 226 209 221 273 206 247 248 238 131 255 270 265 341 319 312 314 313 307 298 288 275 265 231 198 181 169 161 157 153
180 167 199 206 157 151 178 212 207 188 223 219 229 217 229 189 256 247 225 255 228 257 124 255 249 247 135 329 323 317 318 320 316 305 286 254 251 226 206 187 174 170 165 157
169 162 156 157 189 197 206 213 208 211 231 184 206 183 191 194 209 245 207 253 229 246 132 204 244 84 6 330 328 327 328 338 342 348 350 224 207 197 205 190 180 172 171 170
154 156 165 187 185 209 212 196 200 204 195 180 179 167 164 171 195 226 254 223 246 127 217 233 96 31 347 319 328 329 339 353 358 5 3 185 183 185 199 190 189 184 176 168
141 162 189 215 195 224 211 233 210 147 197 167 174 156 193 179 181 219 243 224 231 220 222 240 39 349 326 299 321 337 353 1 6 20 47 107 151 164 175 182 176 174 169 162
185 190 222 219 233 222 220 239 218 188 180 161 155 196 224 185 239 215 265 241 238 214 210 155 333 323 261 260 271 352 354 0 11 18 84 121 148 153 150 157 162 163 156 151
215 224 247 227 262 242 224 213 208 181 177 167 180 191 220 216 220 208 219 241 245 74 277 304 301 329 238 224 189 201 51 53 61 106 132 139 145 146 140 141 144 146 144 142
218 237 235 250 281 261 234 212 207 187 191 196 180 214 214 126 218 235 229 251 355 353 333 327 311 263 216 186 186 161 105 113 115 116 113 123 136 140 140 137 140 144 145 142
Wind_Speed_850mb
72 73 77 79 82 81 62 15 6 35 41 17 11 15 16 25 19 28 16 20 25 24 38 32 24 13 2 27 34 22 11 8 10 22 17 19 19 17 16 4 5 12 4 15
69 71 73 74 74 75 56 17 8 22 29 11 15 19 11 13 23 26 15 16 20 23 33 23 22 24 16 38 26 24 15 7 8 13 13 16 20 14 13 7 13 13 4 16
66 68 69 71 68 64 39 13 9 9 21 22 17 18 16 23 24 23 30 23 20 32 36 19 21 20 9 39 35 37 9 11 13 10 12 25 21 14 16 16 5 2 23 24
63 66 66 66 64 58 29 21 9 7 13 16 23 17 14 24 24 12 26 10 27 35 19 39 8 35 36 24 26 29 16 11 22 14 1 8 16 21 18 18 7 9 14 8
60 63 63 62 60 56 28 15 14 11 17 17 19 2 19 25 30 15 18 22 35 35 31 28 42 39 29 14 16 21 22 6 11 7 4 15 16 16 17 16 5 9 5 12
55 58 59 59 55 52 17 18 13 7 4 16 13 14 20 29 34 15 22 29 35 33 26 48 63 61 51 36 35 22 15 13 10 4 1 17 18 20 16 10 12 6 5 20
51 54 55 55 51 47 30 21 10 10 11 12 12 27 29 30 31 29 40 30 30 30 63 64 42 32 26 29 31 28 18 22 11 9 8 20 18 17 16 14 5 5 2 8
47 50 50 50 45 43 30 25 10 10 13 21 14 27 30 32 29 19 21 22 36 39 39 13 10 6 6 3 6 14 21 11 10 8 10 11 15 25 12 12 13 24 11 15
44 45 44 44 42 37 26 25 20 6 14 5 15 23 20 19 21 14 7 27 24 34 7 9 13 9 10 7 6 7 7 15 9 11 7 3 16 28 19 9 10 28 21 16
44 44 42 37 39 35 26 13 26 7 10 11 9 9 13 13 17 13 14 29 19 31 13 11 9 7 11 10 13 3 5 6 9 7 9 10 26 27 10 15 9 37 27 8
46 44 40 35 33 30 24 15 20 9 13 27 12 13 19 19 12 12 30 12 13 13 15 10 7 7 7 6 5 14 8 9 5 8 5 6 42 17 14 22 36 29 28 17
48 45 41 36 29 28 22 8 21 21 17 19 29 29 28 31 27 23 12 9 8 9 7 7 8 5 5 13 6 6 4 4 8 9 6 14 22 25 30 39 36 23 12 38
50 47 41 37 30 26 21 11 16 15 16 23 16 9 12 13 15 20 10 2 7 5 10 8 7 7 5 9 8 18 13 5 6 16 13 32 17 39 42 36 38 24 31 38
50 47 40 35 30 25 20 15 18 10 10 10 5 14 12 12 16 19 27 20 16 17 17 11 7 7 1 8 13 18 13 19 12 8 10 22 20 44 59 29 24 24 34 40
53 46 39 34 30 24 22 22 20 16 7 13 21 29 14 15 15 18 22 25 22 12 8 8 6 8 9 14 12 11 4 2 6 5 14 12 27 39 44 23 10 21 34 37
59 43 38 33 27 20 10 9 14 19 17 9 8 11 11 12 13 19 21 20 18 13 8 10 9 16 9 7 8 11 14 10 14 14 24 24 20 34 34 10 13 23 29 36
51 36 29 29 28 21 14 9 11 17 11 5 12 8 7 12 9 11 8 13 10 12 10 10 12 10 8 7 15 9 10 10 11 18 22 14 8 23 29 6 20 28 31 36
34 24 24 26 19 20 20 24 24 16 7 6 7 7 9 8 10 8 12 9 10 13 10 9 7 6 8 9 13 15 17 21 26 18 23 30 27 19 7 15 35 40 39 42
27 25 24 19 17 13 11 17 15 23 11 7 9 7 3 6 7 8 10 9 8 11 8 9 6 6 9 8 21 26 25 20 28 33 35 28 19 8 15 19 30 36 43 43
32 32 13 13 12 21 21 12 9 15 15 17 12 16 8 5 4 4 5 9 5 6 3 2 6 9 20 9 16 20 26 31 34 35 33 20 13 12 21 24 26 33 42 48
43 19 13 12 26 17 10 11 14 17 10 16 19 29 11 7 7 4 7 4 6 5 5 3 5 6 5 9 17 23 30 27 26 27 31 31 23 19 23 27 30 37 47 55
31 17 18 19 12 11 10 9 10 13 10 19 23 20 20 7 6 8 9 6 6 9 15 5 6 6 9 12 16 21 23 22 22 20 12 6 17 23 28 31 36 42 54 62
30 12 11 11 13 12 14 18 11 10 14 20 25 16 14 11 12 8 7 9 9 7 7 6 2 12 16 12 17 16 17 16 19 17 10 1 13 21 25 31 33 38 47 58
10 13 11 13 13 13 11 11 6 6 10 27 26 16 13 12 11 9 9 9 6 7 7 5 5 25 15 8 9 9 13 15 15 12 8 8 12 21 25 29 34 45 58 62
11 12 10 16 17 6 7 13 4 13 13 20 13 6 7 8 7 7 7 7 9 5 1 2 4 14 10 7 3 5 9 9 8 6 5 11 17 25 33 35 43 55 65 60
10 13 10 8 7 15 17 17 21 14 17 10 7 5 7 11 7 10 14 7 7 5 2 18 17 15 12 9 6 0 3 5 4 6 11 15 24 34 43 48 55 55 54 48
10 9 16 17 12 13 11 24 26 21 25 13 7 9 11 2 6 7 4 7 6 15 20 22 32 13 14 13 12 7 8 13 15 17 21 26 35 43 51 56 51 53 49 46
Wind_Direction_850mb
357 358 358 360 0 3 11 17 345 340 6 25 8 16 337 323 327 334 311 309 320 350 326 326 325 354 19 334 323 303 317 302 207 196 169 263 226 262 231 325 144 7 179 92
354 356 357 1 3 3 4 352 335 348 22 30 15 355 334 324 322 332 322 309 334 332 323 327 321 348 16 330 341 350 335 276 206 171 182 211 254 221 260 12 301 24 245 119
349 353 357 360 4 6 9 1 351 11 43 43 347 355 5 341 329 314 335 294 308 338 328 312 294 341 6 320 307 327 271 285 322 346 57 163 212 234 228 231 265 106 62 123
345 350 356 360 3 10 31 16 39 0 330 0 342 336 325 342 352 328 322 308 345 337 322 318 51 326 329 6 288 335 2 330 328 324 71 229 204 190 193 221 304 273 70 81
343 347 352 360 3 7 29 15 353 323 292 316 323 22 351 329 341 320 316 315 326 320 306 297 301 314 320 328 296 347 342 293 290 272 262 219 229 204 197 222 188 254 323 101
340 343 349 356 4 13 31 7 338 332 300 328 313 7 330 320 324 311 314 314 310 313 324 312 294 284 278 259 282 301 301 328 5 270 181 176 214 215 196 199 234 297 233 76
336 339 343 350 1 8 20 11 359 310 328 322 329 317 317 319 320 302 306 312 309 305 313 308 281 249 259 255 258 247 279 319 315 298 292 184 64 15 270 232 250 131 25 94
332 333 337 343 351 359 12 10 13 323 295 321 300 325 320 319 319 321 318 336 319 319 316 319 341 69 165 146 250 236 230 285 303 310 305 123 84 26 357 343 94 13 341 102
326 327 329 333 337 351 0 360 8 319 294 77 313 314 313 319 337 333 5 340 337 341 312 334 4 11 330 337 347 82 173 246 307 327 295 24 17 348 341 215 180 21 349 146
318 320 320 323 325 335 351 322 357 359 281 286 305 314 320 313 321 300 317 347 345 2 352 29 3 358 358 342 320 302 177 205 264 293 261 119 353 346 313 225 29 339 337 251
308 311 312 312 312 314 332 302 329 330 286 289 258 267 274 293 276 311 339 285 29 347 13 356 358 341 359 285 280 329 11 324 266 283 251 82 354 13 17 329 320 318 306 184
301 305 303 303 299 296 305 301 302 313 279 264 281 269 253 247 255 292 309 335 343 9 339 2 304 354 310 284 346 35 24 108 301 326 29 346 61 20 346 337 326 322 94 124
294 298 296 296 292 289 295 281 274 307 292 305 262 250 235 262 256 226 269 128 350 54 358 328 284 278 355 338 346 342 326 225 258 315 4 334 271 1 351 342 334 315 154 143
283 288 287 286 281 274 273 270 269 275 282 282 232 257 255 260 239 241 236 258 287 295 294 289 273 289 256 288 287 294 272 312 322 302 10 335 351 352 351 346 5 103 137 147
275 276 276 275 270 269 276 275 256 226 263 306 298 291 263 213 219 234 241 245 254 275 271 235 259 300 282 260 287 263 244 275 324 339 357 323 320 335 348 350 51 123 133 138
263 260 260 260 256 260 270 263 239 213 214 290 290 301 245 210 238 249 240 233 227 238 240 269 252 249 281 292 283 294 307 294 285 295 318 320 310 332 336 333 116 128 141 142
244 240 239 247 250 237 200 253 193 199 212 241 283 256 211 223 240 209 191 194 217 228 251 247 261 272 217 268 269 288 323 323 306 306 309 305 323 307 311 205 150 136 137 138
213 215 227 252 247 251 255 243 226 207 224 225 267 273 239 191 227 218 183 189 213 223 259 241 231 242 223 259 248 293 314 311 297 296 299 299 300 301 234 157 153 138 141 142
188 187 213 243 234 219 214 185 197 209 202 255 226 252 118 176 225 253 208 222 228 179 223 238 214 195 231 311 318 309 317 317 305 302 298 297 289 266 198 172 161 148 150 149
171 182 191 223 207 162 156 166 181 208 222 222 246 239 240 226 209 221 273 206 247 248 238 131 255 270 265 341 319 312 314 313 307 298 288 275 265 231 198 181 169 161 157 153
180 167 199 206 157 151 178 212 207 188 223 219 229 217 229 189 256 247 225 255 228 257 124 255 249 247 135 329 323 317 318 320 316 305 286 254 251 226 206 187 174 170 165 157
169 162 156 157 189 197 206 213 208 211 231 184 206 183 191 194 209 245 207 253 229 246 132 204 244 84 6 330 328 327 328 338 342 348 350 224 207 197 205 190 180 172 171 170
154 156 165 187 185 209 212 196 200 204 195 180 179 167 164 171 195 226 254 223 246 127 217 233 96 31 347 319 328 329 339 353 358 5 3 185 183 185 199 190 189 184 176 168
141 162 189 215 195 224 211 233 210 147 197 167 174 156 193 179 181 219 243 224 231 220 222 240 39 349 326 299 321 337 353 1 6 20 47 107 151 164 175 182 176 174 169 162
185 190 222 219 233 222 220 239 218 188 180 161 155 196 224 185 239 215 265 241 238 214 210 155 333 323 261 260 271 352 354 0 11 18 84 121 148 153 150 157 162 163 156 151
215 224 247 227 262 242 224 213 208 181 177 167 180 191 220 216 220 208 219 241 245 74 277 304 301 329 238 224 189 201 51 53 61 106 132 139 145 146 140 141 144 146 144 142
218 237 235 250 281 261 234 212 207 187 191 196 180 214 214 126 218 235 229 251 355 353 333 327 311 263 216 186 186 161 105 113 115 116 113 123 136 140 140 137 140 144 145 142